EHI
0 0 0 0 0 0 0 0 0 1 1 1 2 5 10 13 14 15 15 15 14 13 11 9 9 10 10 9 7 6 5 5 5 5 8 9 9 7 6 5 4 4 3 3
0 0 0 0 0 0 0 0 0 0 0 2 4 7 10 14 16 16 16 17 16 14 12 11 10 10 10 9 9 8 7 6 6 6 7 9 8 7 6 6 5 4 3 3
0 0 0 0 0 0 1 1 1 1 1 3 6 7 9 11 13 15 16 17 16 14 13 11 10 10 9 9 10 10 8 6 6 5 5 7 7 7 6 6 6 5 5 5
0 0 0 0 0 1 2 2 2 2 3 5 6 6 5 6 9 12 14 15 13 12 13 12 9 8 7 7 8 9 8 5 4 4 4 4 5 5 6 7 7 7 8 9
0 0 0 0 0 1 2 3 2 3 4 5 5 4 3 3 5 9 11 11 10 9 10 9 7 5 5 5 6 6 5 3 3 3 3 3 3 4 5 7 8 9 10 11
0 0 0 0 0 0 1 2 2 2 4 5 3 2 1 1 2 4 7 8 8 8 7 6 6 5 4 4 4 3 2 1 1 3 3 3 3 3 5 7 8 9 9 9
0 0 0 0 0 0 0 1 1 2 4 5 3 1 0 0 1 4 6 7 9 10 7 6 6 5 4 3 2 2 2 1 1 3 3 3 3 3 4 5 6 6 6 5
0 0 0 0 0 0 0 0 1 2 3 4 3 1 0 0 2 4 6 7 9 9 8 7 7 6 3 2 1 2 3 2 2 2 2 3 3 3 3 4 4 4 4 4
0 0 0 1 0 0 0 0 0 1 2 2 1 1 0 1 2 3 6 7 7 6 5 6 6 5 3 1 1 2 2 2 2 1 1 1 2 2 2 2 2 2 2 3
0 0 0 0 0 0 0 0 0 0 0 0 0 0 0 1 1 1 3 5 5 3 3 3 3 3 2 2 1 1 1 1 1 0 0 0 1 1 1 1 1 1 1 1
0 0 0 0 0 0 0 0 0 0 0 0 0 0 0 0 0 0 1 3 4 3 2 1 1 1 1 1 1 0 0 0 0 0 0 0 0 0 0 0 0 0 0 0
0 0 0 0 0 0 0 0 0 0 0 0 0 0 0 0 0 0 0 1 2 2 1 0 0 0 0 0 0 0 0 0 0 0 0 0 0 0 0 0 0 0 0 0
0 0 0 0 0 0 0 0 0 0 0 0 0 0 0 0 0 0 0 0 1 1 1 0 0 0 0 0 0 0 0 0 0 0 0 0 0 0 0 0 0 0 0 0
0 0 0 0 0 0 0 0 0 0 0 0 0 0 0 0 0 0 0 0 0 0 0 0 0 0 0 0 0 0 0 0 0 0 0 0 0 0 0 0 0 0 0 0
0 0 0 0 0 0 0 0 0 0 0 0 0 0 0 0 0 0 0 0 0 0 0 0 0 0 0 0 0 0 0 0 0 0 0 0 0 0 0 0 0 0 0 0
0 0 0 0 0 0 0 0 0 0 0 0 0 0 0 0 0 0 0 0 0 0 0 0 0 0 0 0 0 0 0 0 0 0 0 0 0 0 0 0 0 0 0 0
0 0 0 0 0 0 0 0 0 0 0 0 0 0 0 0 0 0 0 0 0 0 0 0 0 0 0 0 0 0 0 0 0 0 0 0 0 0 0 0 0 0 0 0
1 0 0 0 0 0 0 0 0 0 0 0 0 0 0 0 0 0 0 0 0 0 0 0 0 0 0 0 0 0 0 0 0 0 0 0 0 0 0 0 0 0 0 0
1 0 0 0 0 0 0 0 0 0 0 0 0 0 0 0 0 0 0 0 0 0 0 0 0 0 0 0 0 0 0 0 0 0 0 0 0 0 0 0 0 0 0 0
1 0 0 0 1 0 0 0 0 0 0 0 0 0 0 0 0 0 0 0 0 0 0 0 0 0 0 0 0 0 0 0 0 0 0 0 0 0 0 0 0 0 0 0
0 0 0 0 0 0 0 0 0 0 0 0 0 0 0 0 0 0 0 0 0 0 0 0 0 0 0 0 0 0 0 0 0 0 0 0 0 0 0 0 0 0 0 0
0 0 0 0 0 0 0 0 0 0 0 0 0 0 0 0 0 0 0 0 0 0 0 0 0 0 0 0 0 0 0 0 0 0 0 0 0 0 0 0 0 0 0 0
0 0 0 0 0 0 0 0 0 0 0 0 0 0 0 0 0 0 0 0 0 0 0 0 0 0 0 0 0 0 0 0 0 0 0 0 0 0 0 0 0 0 0 0
0 0 0 0 0 0 0 0 0 0 0 0 0 0 0 0 0 0 0 0 0 0 0 0 0 0 0 0 0 0 0 0 0 0 0 0 0 0 0 0 0 0 0 0
0 0 0 0 0 0 0 0 0 0 0 0 0 0 0 0 0 0 0 0 0 0 0 0 0 0 0 0 0 0 0 0 0 0 0 0 0 0 0 0 0 0 0 0
0 0 0 0 0 0 0 0 0 0 0 0 0 0 0 0 0 0 0 0 0 0 0 0 0 0 0 0 0 0 0 0 0 0 0 0 0 0 0 0 0 0 0 0
0 0 0 0 0 0 0 0 0 0 0 0 0 0 0 0 0 0 0 0 0 0 0 0 0 0 0 0 0 0 0 0 0 0 0 0 0 0 0 0 0 0 0 0
Wind_Speed
3 2 2 0 1 1 2 5 6 6 6 7 7 6 4 3 4 5 4 4 5 5 5 4 4 4 5 5 5 6 6 5 5 5 5 5 5 5 5 5 5 5 5 4
3 3 2 2 1 1 0 1 4 6 2 2 3 5 5 4 5 5 4 5 5 5 5 4 4 4 4 5 5 5 5 5 4 4 5 5 6 6 5 5 4 4 4 4
1 2 4 2 2 1 2 2 5 5 4 4 5 5 4 3 4 4 3 4 4 4 4 3 4 4 5 5 5 5 5 5 5 5 5 4 5 5 5 5 5 4 4 4
2 4 1 5 1 5 7 5 5 7 7 6 6 5 4 3 4 5 4 4 3 4 4 3 2 3 4 5 5 6 5 5 5 5 4 4 4 4 4 4 4 4 3 3
3 2 2 2 2 2 4 3 3 8 9 7 6 6 5 4 4 4 4 3 3 4 4 4 3 4 5 5 5 5 4 4 4 4 4 5 5 4 3 4 4 4 3 4
4 3 4 3 2 0 6 2 1 6 8 6 4 3 0 2 4 5 5 5 4 4 5 5 4 4 6 6 6 5 4 4 4 4 5 5 4 4 4 4 4 4 4 3
3 3 3 3 4 2 4 4 2 4 5 4 3 3 3 3 4 5 5 5 6 6 6 5 4 6 8 7 6 4 4 6 6 6 5 5 5 5 5 5 5 5 5 5
3 3 5 3 2 2 3 2 3 4 4 6 6 7 6 5 5 6 6 6 6 7 6 5 5 7 8 7 5 5 6 7 7 7 6 6 7 6 6 6 7 5 6 5
4 4 1 1 3 1 3 4 3 4 5 7 8 8 7 6 6 6 7 7 6 7 8 6 6 7 9 6 5 7 9 9 8 9 8 7 7 7 6 5 6 5 5 5
3 2 2 4 5 5 4 3 4 5 6 8 10 9 9 8 7 7 7 6 7 8 9 7 7 7 7 6 6 9 9 8 7 8 8 8 6 6 6 5 5 4 4 4
3 3 3 5 5 5 5 6 7 6 7 9 12 11 9 8 8 8 7 6 7 8 9 8 8 8 7 7 8 9 9 8 7 7 7 8 7 6 6 5 4 5 3 3
4 4 4 2 2 5 7 7 8 11 11 9 10 11 10 9 8 8 8 8 9 9 9 8 8 8 7 6 7 9 8 7 6 5 5 6 7 7 11 9 10 11 9 6
5 5 6 6 5 7 8 9 9 12 12 11 10 11 11 10 9 9 9 10 9 9 8 8 8 8 7 6 7 8 7 6 5 5 5 5 5 6 5 6 10 11 10 10
9 9 8 6 7 8 10 11 12 13 12 11 10 11 11 11 11 11 10 8 9 9 9 8 9 8 6 6 7 7 7 7 6 4 4 4 4 4 4 5 4 4 5 8
6 7 9 10 9 9 9 11 12 12 11 10 10 11 11 12 11 10 9 8 10 10 9 9 9 7 6 6 8 7 6 5 5 5 5 4 4 5 5 5 4 3 3 4
10 11 11 12 11 9 10 11 11 10 10 11 11 11 11 11 11 10 9 9 10 9 8 8 8 6 6 7 8 7 7 10 8 6 5 5 5 5 5 5 4 4 3 2
12 10 11 12 11 10 9 9 10 10 11 11 11 11 12 12 11 10 9 9 9 8 7 7 6 6 7 7 7 6 5 7 10 7 6 5 5 5 4 4 4 4 3 4
9 9 10 12 12 11 10 10 10 11 11 11 11 11 11 11 10 9 8 8 9 9 8 6 6 7 8 8 7 6 6 6 6 6 5 5 5 5 5 5 5 5 3 4
11 11 10 11 11 10 10 9 9 9 10 11 12 11 10 10 9 9 8 9 9 8 5 6 9 9 8 8 8 5 6 7 6 6 5 7 6 5 5 5 4 4 4 4
11 11 11 11 10 10 10 10 10 10 10 11 12 12 11 10 9 9 9 8 4 2 3 6 7 7 6 7 8 5 6 7 6 6 5 5 5 5 4 5 5 4 4 4
11 12 12 11 10 10 10 11 11 11 10 10 11 11 10 8 8 7 8 6 3 3 5 8 6 5 5 6 8 6 6 6 5 5 5 4 4 4 4 4 4 4 3 3
10 11 12 12 12 11 9 10 11 11 10 10 11 11 10 9 8 7 6 3 2 5 5 4 4 7 8 8 5 5 6 5 5 4 4 4 4 4 4 4 4 3 3 3
10 10 11 11 12 11 10 10 10 10 10 10 10 9 9 7 5 6 4 2 3 6 5 4 7 11 11 7 5 5 5 5 4 4 3 3 3 3 3 4 3 3 3 2
10 10 10 10 11 12 11 9 9 8 9 9 8 8 8 6 4 3 4 5 7 8 5 6 10 11 9 5 5 5 4 4 4 4 4 3 3 3 3 3 3 2 2 3
10 10 10 11 10 8 9 10 10 10 9 7 8 7 6 5 5 4 4 5 7 7 4 6 9 9 6 4 4 4 4 3 4 3 3 3 3 3 3 3 2 2 2 2
9 8 7 8 7 6 7 7 7 6 6 7 6 5 5 4 5 5 4 5 6 6 4 3 4 5 4 4 4 4 4 4 4 4 3 3 3 3 2 2 3 2 2 2
9 7 6 6 5 5 6 7 7 6 6 6 6 4 5 5 5 5 5 4 4 4 3 3 3 3 3 3 3 3 3 3 3 3 3 3 2 2 2 2 2 2 2 2
Wind_Direction
157 170 128 122 317 32 139 176 173 189 171 200 191 176 157 126 111 126 132 129 135 148 149 149 147 161 168 168 169 168 165 173 182 176 172 167 163 161 156 159 165 160 160 163
35 27 49 26 343 296 263 157 136 125 146 209 139 103 91 83 93 106 128 137 131 134 145 149 152 164 167 167 164 154 158 170 169 164 162 161 163 156 152 152 147 141 150 154
358 354 45 335 293 83 84 54 135 147 170 137 108 101 104 100 98 97 99 110 129 136 142 156 163 165 165 164 158 157 160 164 158 153 158 162 154 145 151 150 142 142 151 148
106 58 208 247 313 93 96 68 91 115 121 124 122 110 84 77 100 94 89 100 105 109 104 98 117 136 139 140 143 147 153 156 154 151 151 144 138 143 151 144 143 151 154 155
111 143 251 276 7 73 105 68 83 121 120 115 118 90 55 48 70 89 96 101 99 100 104 99 94 107 116 117 122 126 136 135 134 138 143 137 135 139 143 137 136 141 136 138
125 154 214 248 294 223 102 85 48 125 136 144 125 103 143 43 74 76 76 85 92 93 98 94 86 94 102 104 103 111 121 119 120 129 132 134 137 129 119 118 122 118 108 103
149 178 237 284 299 24 127 203 173 133 144 139 120 145 144 93 75 81 87 85 88 86 83 82 81 92 95 94 98 106 109 105 99 100 104 108 107 104 105 104 100 97 90 76
150 175 227 310 29 112 185 157 116 115 118 112 113 113 112 100 86 83 82 81 87 90 82 76 81 90 90 84 82 88 90 89 85 82 88 89 89 88 90 98 94 86 83 71
170 192 210 74 102 106 125 124 125 124 128 127 125 120 115 105 93 82 82 83 82 90 85 77 78 90 93 84 81 86 87 85 83 79 73 73 81 85 83 87 94 91 84 78
92 74 73 68 63 48 69 106 125 130 134 133 126 120 116 109 98 87 82 84 85 83 80 71 68 77 86 87 88 88 87 84 83 84 77 68 65 70 78 80 90 94 92 88
114 127 81 54 54 68 73 87 98 99 109 122 123 121 115 106 98 93 87 79 83 85 82 75 70 70 71 80 89 89 87 84 81 80 84 78 68 59 69 61 92 109 106 105
186 186 137 111 72 92 97 98 109 109 99 101 112 112 108 99 94 93 88 83 80 77 77 73 71 68 64 72 87 93 89 84 84 85 84 88 90 72 51 63 69 75 81 88
142 119 112 111 88 88 97 101 105 106 107 106 102 104 103 99 94 91 86 83 83 81 78 74 73 67 60 65 78 86 92 93 90 89 93 97 99 102 88 52 53 59 65 70
121 113 103 99 100 96 100 101 99 96 95 100 104 103 101 96 91 88 85 83 84 80 73 70 69 58 47 62 75 82 84 85 89 90 92 94 96 96 98 97 76 43 40 56
108 107 118 115 104 99 101 104 103 99 96 93 98 102 101 99 95 90 85 82 78 73 66 63 61 47 38 58 68 73 77 79 83 82 82 84 86 86 86 88 88 78 55 42
112 110 116 116 116 114 111 112 110 106 102 99 100 103 104 103 99 93 85 81 79 71 64 64 59 43 44 59 68 69 72 78 81 81 78 76 77 81 82 83 81 76 67 53
127 133 133 130 128 124 119 117 117 115 112 110 110 108 105 102 98 91 83 80 80 73 63 62 53 43 49 59 71 74 72 73 75 75 74 77 81 82 83 85 85 79 64 59
134 136 135 133 133 126 120 117 118 119 117 117 113 108 105 103 102 98 92 84 76 64 51 50 53 53 53 56 64 69 73 73 72 75 75 74 74 74 77 79 81 78 60 59
123 125 125 124 123 123 122 122 120 117 116 116 112 109 106 104 102 96 88 80 75 66 37 41 56 57 54 55 66 71 75 75 72 70 72 73 70 66 71 74 74 72 69 63
120 120 121 120 118 119 120 120 117 113 113 113 111 108 104 102 100 95 86 77 68 80 67 59 58 54 49 54 66 73 76 78 77 73 69 68 69 66 67 70 71 68 66 65
120 119 119 118 113 112 116 118 115 113 110 111 113 114 112 106 102 99 94 81 39 55 65 62 59 51 50 62 70 75 77 78 77 77 75 73 72 70 68 68 69 69 67 63
114 115 116 115 111 108 108 109 110 110 109 109 110 111 110 107 102 93 86 99 92 78 69 57 57 60 66 70 71 74 78 78 75 73 73 73 74 73 70 71 70 68 65 63
112 113 113 114 114 111 105 105 109 111 112 113 115 117 116 115 114 111 98 75 87 83 77 66 68 68 70 69 71 73 75 77 76 75 76 75 76 78 77 73 72 72 69 60
110 112 111 112 110 107 106 106 105 104 104 102 104 112 114 109 93 90 113 105 97 92 81 74 72 72 71 68 66 69 73 74 73 71 73 72 73 76 78 78 75 69 65 56
106 109 110 112 112 113 113 112 106 102 99 96 94 94 96 106 114 113 106 101 102 94 82 74 75 75 69 68 69 72 73 77 83 82 75 75 76 77 76 77 78 73 63 51
106 107 107 106 109 111 113 112 110 108 106 101 93 90 90 93 98 98 95 95 94 95 91 80 77 74 73 72 70 74 75 75 74 73 76 77 77 78 79 78 77 78 75 67
103 102 101 97 96 102 106 109 110 108 109 110 104 96 97 95 95 95 94 93 92 92 92 89 86 84 83 79 73 73 72 71 75 78 79 78 78 82 85 82 78 80 77 74